| time (UTC) | temp F | wind direction | speed knots | gust knots | rain 1hr in | rain 24hr in | rain mn in | humidity % | barometer mb |
| 20260503192957 | 59 | 303 | 2.6 | 7.0 | 0.00 | 0.01 | 0.01 | ||
| 20260503192457 | 59 | 305 | 0.0 | 7.0 | 0.00 | 0.01 | 0.01 | ||
| 20260503191955 | 59 | 287 | 3.5 | 7.0 | 0.00 | 0.01 | 0.01 | ||
| 20260503185951 | 59 | 288 | 4.3 | 6.1 | 0.00 | 0.01 | 0.01 | ||
| 20260503185450 | 59 | 281 | 5.2 | 6.1 | 0.00 | 0.01 | 0.01 | ||
| 20260503184950 | 59 | 282 | 5.2 | 5.2 | 0.00 | 0.01 | 0.01 | ||
| 20260503183947 | 59 | 275 | 4.3 | 5.2 | 0.00 | 0.01 | 0.01 | ||
| 20260503183446 | 59 | 268 | 3.5 | 5.2 | 0.00 | 0.01 | 0.01 | ||
| 20260503182947 | 59 | 274 | 4.3 | 5.2 | 0.00 | 0.01 | 0.01 | ||
| 20260503182444 | 59 | 282 | 4.3 | 5.2 | 0.00 | 0.01 | 0.01 | ||
| 20260503181943 | 60 | 264 | 3.5 | 5.2 | 0.00 | 0.01 | 0.01 | ||
| 20260503181442 | 60 | 274 | 3.5 | 4.3 | 0.00 | 0.01 | 0.01 | ||
| 20260503180941 | 60 | 250 | 3.5 | 7.0 | 0.00 | 0.01 | 0.01 | ||
| 20260503180440 | 60 | 256 | 3.5 | 7.0 | 0.00 | 0.01 | 0.01 | ||
| 20260503174937 | 60 | 267 | 6.1 | 7.0 | 0.00 | 0.01 | 0.01 | ||
| 20260503174437 | 61 | 243 | 6.1 | 7.0 | 0.00 | 0.01 | 0.01 | ||
| 20260503174028 | 61 | 260 | 5.2 | 7.0 | 0.00 | 0.01 | 0.01 | ||
| 20260503173935 | 61 | 260 | 5.2 | 7.0 | 0.00 | 0.01 | 0.01 | ||
| 20260503173434 | 60 | 253 | 4.3 | 7.0 | 0.00 | 0.01 | 0.01 | ||
| 20260503172933 | 61 | 268 | 3.5 | 6.1 | 0.00 | 0.01 | 0.01 | ||
| 20260503172432 | 60 | 9 | 4.3 | 6.1 | 0.00 | 0.01 | 0.01 | ||
| 20260503171430 | 59 | 357 | 6.1 | 7.8 | 0.00 | 0.01 | 0.01 | ||
| 20260503170428 | 58 | 14 | 4.3 | 7.0 | 0.00 | 0.01 | 0.01 | ||
| 20260503150905 | 52 | 352 | 2.6 | 5.2 | 0.00 | 0.01 | 0.01 | ||
| 20260503150404 | 52 | 338 | 0.9 | 3.5 | 0.00 | 0.01 | 0.01 | ||
| 20260503131342 | 50 | 0 | 0.0 | 0.0 | 0.01 | 0.01 | 0.01 | ||
| 20260503130841 | 50 | 0 | 0.0 | 0.0 | 0.01 | 0.01 | 0.01 | ||
| 20260503130341 | 49 | 0 | 0.0 | 0.0 | 0.01 | 0.01 | 0.01 | ||
| 20260503110817 | 50 | 0 | 0.0 | 0.0 | 0.00 | 0.00 | 0.00 | ||
| 20260503110316 | 50 | 0 | 0.0 | 0.0 | 0.00 | 0.00 | 0.00 | ||
| 20260503090252 | 49 | 0 | 0.0 | 0.0 | 0.00 | 0.01 | 0.00 | ||
| 20260503080741 | 50 | 0 | 0.0 | 0.0 | 0.00 | 0.01 | 0.00 | ||
| 20260503080356 | 50 | 0 | 0.0 | 0.0 | 0.00 | 0.01 | 0.00 | ||
| 20260503080240 | 50 | 0 | 0.0 | 0.0 | 0.00 | 0.01 | 0.00 | ||
| 20260503072232 | 50 | 0 | 0.0 | 3.5 | 0.00 | 0.01 | 0.00 | ||
| 20260503071231 | 50 | 159 | 0.0 | 3.5 | 0.00 | 0.01 | 0.00 | ||
| 20260503060216 | 51 | 0 | 0.0 | 0.0 | 0.00 | 0.01 | 0.00 | ||
| 20260503054714 | 52 | 0 | 0.0 | 0.0 | 0.00 | 0.01 | 0.00 | ||
| 20260503053712 | 52 | 0 | 0.0 | 0.0 | 0.00 | 0.01 | 0.00 | ||
| 20260503053211 | 52 | 0 | 0.0 | 0.0 | 0.00 | 0.01 | 0.00 | ||
| 20260503052709 | 52 | 0 | 0.0 | 0.0 | 0.00 | 0.01 | 0.00 | ||
| 20260503052208 | 52 | 0 | 0.0 | 0.0 | 0.00 | 0.01 | 0.00 | ||
| 20260503051707 | 52 | 0 | 0.0 | 3.5 | 0.00 | 0.01 | 0.00 | ||
| 20260503051207 | 52 | 193 | 0.0 | 3.5 | 0.00 | 0.01 | 0.00 | ||
| 20260503050706 | 52 | 201 | 0.0 | 3.5 | 0.00 | 0.01 | 0.00 | ||
| 20260503045703 | 52 | 0 | 0.0 | 0.0 | 0.00 | 0.01 | 0.00 | ||
| 20260503042658 | 52 | 0 | 0.0 | 0.0 | 0.00 | 0.01 | 0.00 | ||
| 20260503035151 | 52 | 336 | 0.0 | 5.2 | 0.00 | 0.01 | 0.00 |